Temperature
10 10 10 10 10 10 10 10 10 10 10 10 10 10 10 10 10 10 10 9 9 9 9 9 9 9 9 9 9 9 9 9 9 9 9 9 9 9 9 9 9 9 9
10 9 9 9 9 10 10 10 10 9 9 9 9 9 9 9 9 9 9 9 9 9 9 9 9 9 8 8 8 8 8 8 8 8 8 8 9 9 9 9 9 9 9
9 9 9 9 9 9 9 9 9 9 9 9 9 9 9 9 9 9 9 9 9 9 8 8 8 8 8 8 8 8 8 8 8 8 8 8 8 8 8 8 8 8 8
9 9 9 9 9 9 9 8 8 8 8 8 8 8 8 8 8 8 8 8 8 8 8 8 8 8 8 8 8 7 7 7 8 8 8 7 7 7 7 7 7 7 7
8 8 8 8 8 8 8 8 8 8 8 8 8 8 7 7 8 8 8 8 8 8 8 8 8 8 8 7 7 7 7 7 7 7 7 7 7 7 7 7 7 7 7
7 7 7 8 8 8 8 8 8 7 7 7 7 7 7 7 7 7 7 7 7 7 7 7 7 7 7 7 7 7 7 7 7 7 7 7 7 7 7 7 7 7 7
7 7 7 7 7 7 7 7 7 7 7 7 7 6 6 6 6 7 7 7 7 7 7 7 7 7 7 7 7 6 6 6 6 6 6 6 6 6 6 6 6 6 6
6 6 6 6 6 7 7 7 7 7 6 6 6 6 6 6 6 6 6 6 6 6 6 6 6 6 6 6 6 6 6 6 6 6 6 6 6 6 5 5 6 6 6
6 6 6 6 6 6 6 6 6 6 6 6 6 6 6 6 5 6 6 6 6 6 6 6 6 6 6 6 6 6 5 5 5 5 5 5 5 5 5 5 5 5 5
5 5 5 6 6 5 6 6 6 6 6 6 5 6 6 5 5 5 5 5 5 5 5 5 5 5 5 5 5 5 5 5 5 5 5 5 5 5 4 4 4 4 4
5 5 5 5 5 5 5 5 5 5 5 5 5 5 5 5 5 5 5 5 5 5 5 5 5 5 4 4 4 4 4 4 4 4 4 4 4 4 4 4 4 4 4
4 4 4 5 5 5 5 5 5 5 5 5 5 5 5 5 5 5 5 4 4 4 4 4 4 4 4 4 4 4 4 4 4 4 4 4 4 4 4 4 4 4 4
4 4 4 4 4 4 4 4 4 4 4 4 4 4 4 4 4 4 4 4 4 4 4 3 3 3 3 3 3 3 3 3 3 3 3 3 3 3 3 3 3 3 3
3 3 3 4 4 4 4 4 4 4 4 4 4 4 4 4 4 4 4 3 3 3 3 3 3 3 3 3 3 3 3 3 3 3 3 3 3 3 3 3 3 3 3
3 3 3 3 3 3 3 3 3 3 3 3 3 3 3 3 3 3 3 3 3 2 2 2 2 2 2 2 2 2 2 2 2 2 2 2 2 2 2 2 2 2 2
2 2 2 2 2 2 2 3 3 3 3 3 3 3 3 3 2 2 2 2 2 2 2 2 2 2 2 2 2 2 2 2 2 2 2 2 2 2 2 2 2 2 2
2 2 2 2 2 2 2 2 2 2 2 2 2 2 2 2 2 2 2 1 1 2 2 2 1 1 1 1 1 1 1 1 1 1 1 1 1 1 1 1 1 1 1
1 1 1 1 1 1 1 1 1 1 1 1 2 1 1 1 1 1 1 1 1 1 1 1 1 1 1 1 1 1 0 0 0 1 1 1 1 1 1 1 1 1 0
1 1 1 1 1 1 1 1 1 1 1 1 1 1 1 1 1 1 0 0 0 0 0 0 1 0 0 0 0 -0 -0 -0 -0 -0 -0 -0 -0 -0 -0 0 0 -0 -0
0 0 0 1 1 1 1 1 0 0 0 0 0 0 0 0 0 0 0 -0 -0 -0 -0 -0 -0 -0 -0 -0 -1 -1 -1 -1 -1 -1 -1 -1 -1 -1 -1 -1 -1 -1 -1
-0 -0 -0 -0 -0 -0 0 0 -0 -0 -0 -0 -0 -0 -0 -0 -0 -1 -1 -0 -0 -0 -0 -1 -1 -1 -1 -1 -1 -1 -2 -2 -2 -2 -2 -2 -2 -2 -2 -2 -2 -2 -2
-1 -1 -1 -1 -1 -1 -1 -1 -1 -1 -1 -1 -1 -1 -1 -1 -1 -1 -1 -1 -1 -1 -1 -1 -1 -1 -1 -2 -2 -2 -2 -3 -3 -2 -3 -3 -3 -3 -2 -2 -2 -2 -2
-2 -1 -1 -1 -1 -1 -1 -1 -1 -1 -1 -1 -1 -1 -1 -1 -1 -2 -2 -2 -2 -2 -2 -2 -2 -2 -2 -2 -2 -3 -3 -3 -3 -3 -3 -3 -3 -3 -3 -3 -3 -3 -3
-2 -2 -2 -2 -2 -2 -2 -2 -2 -2 -2 -2 -2 -2 -2 -2 -2 -2 -2 -2 -2 -2 -2 -3 -3 -3 -3 -3 -3 -3 -4 -4 -4 -4 -4 -4 -4 -4 -4 -4 -4 -4 -5
-3 -3 -3 -3 -3 -3 -3 -3 -3 -3 -3 -3 -3 -3 -3 -3 -3 -3 -3 -3 -3 -3 -3 -3 -4 -4 -4 -4 -4 -4 -5 -5 -5 -5 -5 -5 -5 -5 -5 -5 -5 -5 -6
-4 -3 -3 -3 -3 -3 -3 -3 -4 -4 -3 -3 -3 -3 -3 -3 -3 -4 -4 -4 -4 -4 -4 -4 -4 -4 -5 -5 -5 -5 -5 -5 -6 -6 -6 -6 -6 -6 -6 -6 -6 -6 -6
Wind_Speed
6 7 7 8 9 10 10 10 10 11 11 11 12 12 12 12 12 11 11 13 12 11 11 12 12 13 13 13 13 13 12 12 12 12 12 12 12 12 12 13 13 12 12
7 7 7 7 8 9 10 10 9 9 9 10 10 11 11 11 12 12 12 12 12 11 11 11 11 12 12 12 12 12 11 11 11 11 11 11 12 11 11 11 11 11 11
8 8 7 6 7 9 11 11 10 10 8 8 8 9 10 11 11 11 11 11 11 11 11 10 10 10 11 10 10 10 10 10 10 10 10 11 10 11 11 11 10 10 10
8 7 7 6 8 9 9 8 7 6 5 5 5 6 8 9 10 10 11 11 11 11 10 10 10 9 9 9 9 9 9 9 9 9 9 9 9 9 9 10 10 10 9
7 7 6 7 8 8 7 6 5 5 5 5 5 5 6 6 7 8 9 10 10 10 10 9 9 9 8 7 7 7 8 8 8 8 7 7 7 7 7 8 8 9 9
7 6 6 7 8 6 5 5 6 5 5 5 5 5 4 5 6 6 6 7 8 8 9 8 9 8 8 7 6 6 6 6 6 6 6 6 6 6 5 6 7 7 8
6 6 5 6 6 5 5 6 6 6 4 4 4 3 3 3 4 4 5 5 6 6 7 7 7 7 7 7 7 6 6 5 5 4 4 4 4 4 4 4 5 5 5
6 5 6 5 6 5 5 6 6 4 2 2 3 4 1 1 2 2 3 3 3 5 5 5 5 5 6 6 5 5 4 4 3 3 3 3 2 2 2 3 3 3 4
6 6 6 6 5 5 6 6 6 6 5 1 1 3 3 3 0 1 1 1 1 2 3 3 3 4 4 4 3 3 3 3 2 2 2 2 2 2 1 1 2 2 2
5 6 6 7 6 5 5 6 5 5 6 4 1 1 1 3 2 1 1 1 1 1 1 1 1 2 2 2 1 1 2 2 2 3 3 3 3 3 3 3 3 2 2
3 5 5 6 6 5 5 6 5 5 4 5 4 2 2 1 1 2 2 2 1 1 1 1 1 1 1 2 1 1 1 2 3 3 4 4 4 4 4 5 4 3 3
2 3 4 5 6 5 5 5 6 6 4 4 4 3 3 3 2 2 2 2 2 2 2 2 2 2 2 2 2 2 2 3 3 4 5 5 4 5 5 5 5 5 4
2 3 3 4 5 5 6 6 5 5 5 5 5 4 3 3 3 2 2 2 1 2 2 2 4 3 3 3 3 3 3 3 4 4 5 5 5 5 5 5 5 5 5
3 3 4 4 5 5 5 5 4 4 4 5 5 4 3 3 3 4 3 3 1 2 2 4 2 4 4 4 4 4 3 4 4 5 5 5 5 5 4 5 5 6 6
3 3 4 3 5 6 6 5 4 4 5 5 4 4 4 3 3 3 3 4 4 4 5 4 3 3 4 5 5 5 5 5 5 5 5 5 5 5 5 5 5 5 5
3 4 4 4 4 5 5 5 4 4 5 5 4 4 3 3 3 3 4 3 3 4 4 3 3 2 3 4 5 5 6 6 5 5 5 5 5 5 6 6 5 5 5
4 5 5 5 5 5 5 5 5 5 5 5 4 5 5 3 4 3 3 3 3 3 4 3 2 2 3 3 3 4 5 6 6 6 6 6 6 6 6 6 5 5 5
4 5 5 5 5 5 6 6 6 5 6 6 5 6 5 4 5 4 4 4 4 4 4 4 2 2 3 4 3 3 3 5 6 6 7 6 6 6 6 6 5 5 6
4 5 5 6 6 6 6 6 6 6 6 6 6 6 6 6 5 5 5 5 4 3 3 4 3 2 2 2 2 2 2 3 4 5 6 7 6 6 6 5 5 5 6
5 5 6 6 6 6 6 6 6 6 6 6 6 6 6 7 7 6 6 6 5 4 4 4 3 2 2 2 2 2 2 1 2 3 5 6 5 5 5 5 5 5 6
4 4 5 5 5 6 6 7 6 6 6 5 5 5 5 6 7 7 6 6 6 5 5 5 4 3 3 3 4 3 2 1 2 2 2 3 3 3 4 5 5 4 4
4 4 4 5 5 5 7 8 7 6 6 6 5 4 4 5 6 8 9 9 8 7 7 5 4 5 5 4 3 3 2 1 2 2 1 2 2 2 4 5 5 4 4
3 4 4 4 5 6 7 7 7 6 6 6 6 5 4 4 5 3 5 6 6 8 8 7 7 6 5 5 5 4 4 4 3 2 1 2 2 2 4 5 4 4 4
4 4 4 4 4 5 6 6 6 5 5 5 5 6 5 5 4 4 4 3 3 4 6 5 5 5 5 6 6 5 4 2 1 1 2 2 1 2 4 4 4 4 4
3 3 3 4 4 4 6 6 4 3 3 4 4 5 5 5 6 6 5 4 3 3 4 6 5 5 5 5 5 3 3 3 2 2 1 1 1 1 2 2 4 3 3
3 3 3 3 4 4 5 5 5 3 3 3 3 4 5 5 6 5 5 5 5 4 3 3 2 2 2 3 4 4 4 4 2 2 2 2 1 0 1 1 2 3 3
Wind_Direction
104 99 92 90 90 92 94 91 88 87 85 84 83 84 79 74 70 66 65 69 79 87 92 94 92 89 86 85 82 78 76 76 74 72 71 71 70 69 67 66 65 63 62
116 108 99 93 93 97 99 98 95 92 87 86 80 78 76 73 71 69 66 65 67 75 88 93 93 91 87 85 83 79 76 75 75 73 71 70 68 67 67 66 65 62 59
123 119 112 102 100 106 106 102 97 91 87 84 75 71 71 69 68 66 64 63 63 64 74 86 91 90 89 87 84 80 76 73 76 75 71 68 66 64 64 64 63 61 59
121 121 121 117 115 111 110 108 103 96 84 82 77 66 65 65 64 64 64 62 62 61 64 72 80 83 89 91 87 83 77 74 75 74 72 68 65 64 62 61 59 57 56
123 120 124 124 123 113 109 114 105 109 106 93 82 66 56 56 57 63 61 60 62 63 63 66 69 72 77 85 87 84 80 75 71 69 69 66 61 59 61 60 56 53 51
127 119 122 128 128 120 116 115 116 102 110 110 90 68 49 48 55 56 57 60 62 63 66 68 66 66 67 70 77 79 79 77 70 67 66 61 56 55 56 55 53 49 46
135 127 125 132 133 134 138 132 125 117 110 119 101 74 40 46 52 45 49 59 56 60 66 68 69 68 66 63 62 69 69 66 62 63 58 52 48 46 47 50 46 41 38
145 141 140 145 145 138 138 139 135 130 127 137 128 125 97 17 21 29 33 48 46 56 59 67 74 74 71 65 61 58 58 52 45 38 32 23 14 23 33 29 28 25 23
156 151 154 151 153 155 161 161 156 147 156 163 110 148 155 196 251 347 356 15 18 44 41 60 82 90 84 76 67 48 45 31 8 356 342 338 339 332 332 334 344 352 350
163 162 162 160 161 164 170 173 166 159 157 169 154 51 100 149 160 212 307 321 340 358 348 13 78 110 109 97 79 44 25 358 326 322 313 310 313 310 305 293 282 293 301
171 168 169 168 168 172 177 177 171 172 171 172 170 153 112 71 107 164 224 272 305 278 271 265 226 169 156 144 156 266 297 300 298 306 302 296 299 303 309 299 282 279 282
175 180 181 179 176 176 183 187 186 182 182 176 169 168 166 166 182 171 193 221 241 266 266 250 231 215 203 195 212 244 260 274 282 293 298 297 303 306 308 308 291 281 282
210 206 197 190 185 187 189 188 187 191 187 186 185 186 185 185 174 168 170 198 234 273 275 259 239 226 220 219 221 231 245 261 272 280 290 295 303 310 315 310 306 299 290
214 205 200 199 191 189 189 186 192 197 191 194 199 190 188 188 180 180 177 171 198 261 257 256 255 228 229 224 224 223 238 251 265 271 280 288 294 303 307 303 300 302 298
208 195 202 199 195 190 189 185 197 201 193 195 198 194 195 193 190 188 181 181 179 213 236 238 237 235 233 226 224 224 236 246 255 264 272 275 278 284 288 292 292 297 303
195 193 198 200 198 192 189 187 192 197 195 197 190 193 202 194 187 185 186 195 197 196 225 228 225 230 226 229 231 231 237 244 246 256 265 267 265 267 274 279 281 287 294
197 197 200 199 198 195 192 191 196 193 197 201 193 194 204 195 192 193 189 191 201 193 218 241 227 227 209 215 241 238 235 235 242 250 256 260 258 259 264 268 275 282 287
207 204 202 203 202 199 197 196 201 199 201 205 203 199 206 200 201 198 196 201 206 203 203 220 223 214 224 214 219 232 241 235 240 250 253 257 257 255 259 260 266 274 280
212 206 201 206 205 204 203 200 201 203 207 210 208 206 206 200 208 208 205 206 208 208 198 199 212 207 223 210 207 239 253 252 248 251 256 256 257 256 255 257 264 271 276
207 209 207 211 207 207 208 204 203 204 208 211 210 210 209 206 209 208 210 208 201 202 190 188 197 202 208 205 192 209 256 256 265 267 269 264 261 260 264 262 265 270 272
210 209 208 213 210 208 209 204 204 203 204 207 211 216 219 219 217 212 211 205 196 199 192 190 196 200 208 195 206 203 231 255 269 252 264 273 265 266 274 273 270 267 273
205 200 207 205 208 216 219 212 204 195 195 202 211 217 223 221 227 228 225 218 202 198 198 198 206 209 216 209 200 201 204 218 257 233 203 264 250 260 274 268 266 273 284
204 203 208 202 212 220 218 218 211 191 194 200 204 207 217 221 223 216 226 226 221 217 212 204 203 210 206 203 192 202 206 212 235 223 195 257 242 256 268 267 270 280 292
205 210 208 207 215 224 219 217 214 186 194 202 203 203 206 210 212 202 197 204 212 220 219 212 203 203 201 195 192 197 195 197 282 248 203 252 263 269 282 275 280 285 297
213 211 211 208 214 228 224 213 197 180 193 203 204 203 201 203 214 210 194 194 203 215 214 210 214 211 214 212 199 167 169 177 228 249 232 212 249 294 290 276 277 290 300
207 210 219 210 212 224 230 215 196 182 193 197 197 203 210 210 216 215 196 189 199 202 180 169 172 181 183 197 202 185 181 185 192 225 202 184 204 306 296 280 267 293 305
Height
1533 1535 1537 1539 1540 1542 1543 1545 1546 1547 1548 1550 1552 1553 1555 1557 1558 1559 1561 1563 1564 1565 1566 1567 1568 1569 1570 1570 1570 1571 1572 1572 1572 1572 1573 1573 1573 1573 1573 1573 1573 1573 1573
1532 1534 1536 1538 1539 1541 1542 1544 1546 1547 1549 1550 1551 1553 1555 1556 1558 1559 1561 1563 1564 1565 1566 1567 1568 1569 1569 1570 1570 1571 1571 1572 1572 1572 1572 1572 1573 1573 1573 1573 1573 1573 1573
1531 1533 1535 1536 1538 1540 1542 1544 1545 1547 1549 1550 1551 1553 1555 1556 1557 1559 1561 1562 1564 1565 1566 1567 1568 1569 1569 1570 1570 1571 1571 1571 1571 1572 1572 1572 1572 1573 1573 1573 1573 1573 1573
1529 1531 1533 1535 1537 1539 1541 1542 1544 1546 1548 1549 1551 1552 1554 1555 1557 1558 1560 1561 1563 1564 1565 1566 1567 1568 1569 1569 1570 1570 1570 1571 1571 1571 1571 1571 1572 1572 1572 1572 1572 1572 1572
1527 1529 1531 1533 1535 1537 1539 1541 1543 1545 1546 1548 1549 1551 1553 1554 1556 1558 1559 1560 1562 1563 1564 1565 1566 1567 1568 1568 1569 1569 1569 1570 1570 1570 1570 1570 1571 1571 1571 1571 1571 1571 1571
1525 1527 1529 1531 1533 1535 1537 1539 1541 1543 1545 1547 1548 1550 1552 1553 1555 1556 1557 1559 1560 1562 1563 1564 1565 1566 1566 1567 1568 1568 1568 1569 1569 1569 1569 1569 1569 1570 1570 1570 1570 1570 1570
1522 1524 1526 1529 1530 1532 1535 1537 1539 1541 1543 1545 1547 1549 1551 1552 1553 1554 1556 1557 1558 1560 1561 1562 1563 1564 1564 1565 1566 1566 1567 1567 1567 1568 1568 1568 1568 1568 1568 1568 1568 1568 1568
1519 1522 1524 1526 1528 1530 1532 1534 1536 1538 1540 1542 1544 1546 1548 1551 1551 1552 1554 1555 1556 1557 1558 1559 1561 1561 1562 1563 1564 1564 1565 1565 1566 1566 1566 1566 1566 1566 1566 1566 1566 1566 1566
1516 1518 1521 1523 1525 1527 1529 1531 1533 1535 1537 1540 1542 1544 1545 1546 1548 1550 1551 1552 1553 1554 1556 1557 1558 1559 1560 1561 1561 1562 1563 1563 1563 1564 1564 1564 1564 1564 1564 1563 1563 1563 1563
1512 1515 1518 1520 1523 1524 1526 1528 1530 1532 1534 1536 1538 1540 1542 1543 1544 1545 1548 1549 1550 1551 1552 1553 1554 1555 1556 1557 1558 1559 1560 1560 1561 1561 1561 1561 1561 1561 1561 1561 1561 1560 1560
1509 1511 1514 1517 1519 1521 1523 1525 1527 1529 1531 1532 1534 1536 1538 1540 1541 1542 1543 1545 1547 1548 1549 1550 1551 1552 1553 1554 1555 1555 1556 1557 1557 1557 1558 1558 1558 1558 1558 1558 1558 1557 1557
1505 1507 1510 1513 1515 1517 1520 1521 1523 1525 1527 1529 1531 1533 1534 1536 1537 1538 1539 1540 1542 1544 1545 1546 1547 1548 1549 1550 1551 1552 1552 1553 1553 1554 1554 1554 1554 1554 1554 1554 1554 1554 1553
1500 1503 1505 1508 1511 1513 1515 1518 1519 1521 1523 1525 1526 1528 1530 1532 1534 1535 1536 1536 1538 1539 1541 1542 1543 1544 1545 1546 1547 1547 1548 1548 1549 1549 1550 1550 1550 1549 1549 1550 1550 1550 1549
1496 1499 1501 1504 1506 1509 1511 1513 1515 1517 1519 1520 1522 1524 1526 1528 1530 1531 1532 1533 1533 1534 1536 1537 1538 1539 1540 1541 1542 1543 1543 1544 1544 1545 1545 1545 1545 1545 1545 1545 1546 1546 1545
1492 1495 1497 1499 1502 1504 1506 1508 1510 1512 1513 1515 1517 1519 1521 1523 1525 1526 1528 1529 1531 1530 1530 1532 1534 1535 1536 1537 1538 1538 1539 1539 1540 1540 1540 1540 1540 1540 1541 1541 1541 1541 1541
1488 1491 1493 1495 1497 1499 1502 1503 1505 1507 1508 1510 1512 1514 1516 1518 1519 1521 1523 1524 1525 1526 1526 1527 1529 1530 1531 1533 1534 1534 1534 1535 1535 1535 1535 1535 1535 1535 1536 1536 1536 1536 1536
1484 1486 1488 1490 1493 1495 1496 1498 1500 1502 1503 1505 1507 1509 1510 1512 1514 1516 1517 1519 1520 1521 1521 1522 1524 1525 1527 1528 1528 1529 1529 1529 1530 1530 1530 1530 1530 1531 1531 1531 1531 1531 1532
1479 1481 1484 1486 1488 1490 1491 1493 1495 1496 1498 1500 1502 1503 1505 1507 1508 1510 1511 1513 1514 1515 1516 1516 1518 1520 1521 1522 1523 1524 1524 1524 1524 1525 1525 1525 1525 1525 1526 1526 1526 1526 1526
1474 1477 1479 1481 1483 1485 1486 1488 1490 1491 1493 1495 1496 1498 1499 1501 1502 1504 1505 1507 1508 1509 1510 1511 1512 1514 1516 1517 1518 1518 1519 1518 1519 1520 1520 1520 1520 1520 1521 1521 1521 1521 1521
1470 1472 1474 1476 1478 1480 1482 1483 1485 1486 1488 1489 1491 1492 1494 1495 1496 1498 1499 1501 1502 1503 1504 1505 1506 1508 1510 1511 1512 1513 1513 1513 1513 1514 1515 1515 1515 1515 1515 1515 1515 1515 1515
1465 1467 1469 1471 1473 1474 1476 1478 1480 1481 1482 1483 1485 1487 1488 1490 1491 1492 1494 1495 1496 1497 1498 1499 1500 1502 1503 1505 1506 1507 1508 1508 1508 1509 1509 1510 1510 1510 1510 1510 1510 1510 1510
1460 1462 1464 1466 1467 1469 1471 1473 1475 1476 1477 1478 1479 1481 1483 1484 1485 1487 1488 1489 1491 1492 1493 1494 1494 1496 1497 1499 1501 1502 1502 1503 1503 1504 1504 1504 1505 1505 1505 1505 1505 1505 1505
1455 1457 1459 1461 1462 1464 1466 1468 1469 1470 1471 1473 1474 1476 1477 1478 1480 1481 1482 1483 1485 1486 1488 1489 1489 1490 1492 1494 1495 1496 1497 1497 1497 1498 1499 1498 1500 1500 1500 1500 1500 1500 1500
1450 1452 1454 1456 1458 1460 1461 1463 1464 1465 1466 1467 1469 1470 1471 1473 1474 1475 1476 1477 1479 1480 1482 1483 1484 1485 1487 1489 1490 1491 1492 1492 1493 1494 1494 1494 1494 1494 1495 1495 1495 1496 1496
1446 1448 1450 1451 1453 1455 1457 1458 1460 1460 1461 1462 1464 1465 1466 1467 1469 1470 1471 1472 1473 1475 1477 1478 1479 1481 1482 1484 1485 1486 1486 1487 1487 1488 1489 1489 1489 1490 1490 1491 1491 1492 1492
1442 1444 1446 1447 1449 1450 1452 1453 1455 1456 1457 1458 1459 1460 1461 1462 1464 1464 1465 1466 1467 1469 1471 1472 1474 1476 1477 1479 1480 1481 1482 1482 1482 1483 1484 1485 1485 1486 1486 1486 1487 1488 1488